TimeCDT,TemperatureF,Dew PointF,Humidity,Sea Level PressureIn,VisibilityMPH,Wind Direction,Wind SpeedMPH,Gust SpeedMPH,PrecipitationIn,Events,Conditions,WindDirDegrees,DateUTC
12:15 AM,62.6,51.8,68,29.75,10.0,South,10.4,-,N/A,,Clear,170,2012-10-21 05:15:00
12:35 AM,60.8,51.8,72,29.75,10.0,South,10.4,-,N/A,,Clear,170,2012-10-21 05:35:00
12:55 AM,60.8,51.8,72,29.75,10.0,South,9.2,-,N/A,,Clear,170,2012-10-21 05:55:00
1:15 AM,62.6,51.8,68,29.75,10.0,SSE,9.2,-,N/A,,Clear,160,2012-10-21 06:15:00
1:35 AM,62.6,53.6,72,29.75,10.0,SSE,6.9,-,N/A,,Clear,160,2012-10-21 06:35:00
1:55 AM,62.6,53.6,72,29.75,10.0,SE,5.8,-,N/A,,Clear,140,2012-10-21 06:55:00
2:15 AM,62.6,53.6,72,29.75,10.0,SE,3.5,-,N/A,,Clear,140,2012-10-21 07:15:00
2:35 AM,62.6,53.6,72,29.76,10.0,East,4.6,-,N/A,,Clear,90,2012-10-21 07:35:00
2:55 AM,60.8,53.6,77,29.76,10.0,ESE,4.6,-,N/A,,Clear,110,2012-10-21 07:55:00
3:15 AM,60.8,51.8,72,29.76,10.0,East,3.5,-,N/A,,Clear,100,2012-10-21 08:15:00
3:35 AM,60.8,53.6,77,29.76,10.0,ENE,3.5,-,N/A,,Clear,70,2012-10-21 08:35:00
3:55 AM,59.0,51.8,77,29.76,10.0,East,4.6,-,N/A,,Clear,90,2012-10-21 08:55:00
4:15 AM,59.0,51.8,77,29.76,10.0,ESE,3.5,-,N/A,,Clear,110,2012-10-21 09:15:00
4:35 AM,59.0,51.8,77,29.76,10.0,Calm,Calm,-,N/A,,Clear,0,2012-10-21 09:35:00
4:55 AM,57.2,51.8,82,29.76,10.0,Calm,Calm,-,N/A,,Clear,0,2012-10-21 09:55:00
5:15 AM,57.2,51.8,82,29.75,10.0,Calm,Calm,-,N/A,,Clear,0,2012-10-21 10:15:00
5:35 AM,57.2,53.6,88,29.75,10.0,Calm,Calm,-,N/A,,Clear,0,2012-10-21 10:35:00
5:55 AM,57.2,53.6,88,29.75,10.0,Calm,Calm,-,N/A,,Clear,0,2012-10-21 10:55:00
6:15 AM,59.0,53.6,82,29.76,10.0,SSE,3.5,-,N/A,,Clear,150,2012-10-21 11:15:00
6:35 AM,59.0,53.6,82,29.76,10.0,SSE,3.5,-,N/A,,Clear,150,2012-10-21 11:35:00
7:15 AM,59.0,53.6,82,29.76,10.0,Calm,Calm,-,N/A,,Clear,0,2012-10-21 12:15:00
7:35 AM,59.0,55.4,88,29.76,10.0,Calm,Calm,-,N/A,,Clear,0,2012-10-21 12:35:00
7:55 AM,59.0,55.4,88,29.76,10.0,SSE,5.8,-,N/A,,Clear,150,2012-10-21 12:55:00
8:15 AM,60.8,57.2,88,29.77,10.0,SSE,9.2,-,N/A,,Scattered Clouds,160,2012-10-21 13:15:00
8:35 AM,62.6,60.8,94,29.77,10.0,SSE,8.1,-,N/A,,Overcast,160,2012-10-21 13:35:00
8:55 AM,64.4,60.8,88,29.78,10.0,SSE,8.1,-,N/A,,Overcast,160,2012-10-21 13:55:00
9:15 AM,68.0,62.6,83,29.78,10.0,SSE,9.2,-,N/A,,Overcast,160,2012-10-21 14:15:00
9:35 AM,69.8,64.4,83,29.78,7.0,SSE,11.5,-,N/A,,Overcast,160,2012-10-21 14:35:00
9:55 AM,69.8,64.4,83,29.79,7.0,SSE,13.8,18.4,N/A,,Overcast,160,2012-10-21 14:55:00
10:15 AM,69.8,64.4,83,29.79,10.0,South,17.3,21.9,N/A,,Overcast,170,2012-10-21 15:15:00
10:35 AM,71.6,64.4,78,29.79,7.0,South,15.0,20.7,N/A,,Overcast,180,2012-10-21 15:35:00
10:55 AM,71.6,64.4,78,29.79,7.0,South,15.0,19.6,N/A,,Overcast,170,2012-10-21 15:55:00
11:15 AM,73.4,66.2,78,29.78,7.0,South,11.5,17.3,N/A,,Overcast,170,2012-10-21 16:15:00
11:35 AM,73.4,66.2,78,29.78,7.0,South,12.7,-,N/A,,Overcast,170,2012-10-21 16:35:00
11:55 AM,73.4,66.2,78,29.78,7.0,South,12.7,20.7,N/A,,Overcast,170,2012-10-21 16:55:00
12:15 PM,73.4,68.0,83,29.78,7.0,South,18.4,24.2,N/A,,Overcast,170,2012-10-21 17:15:00
12:35 PM,75.2,68.0,78,29.77,7.0,South,16.1,20.7,N/A,,Overcast,170,2012-10-21 17:35:00
12:55 PM,77.0,68.0,74,29.76,10.0,South,19.6,25.3,N/A,,Overcast,170,2012-10-21 17:55:00
1:15 PM,78.8,68.0,69,29.76,10.0,South,19.6,-,N/A,,Overcast,180,2012-10-21 18:15:00
1:35 PM,78.8,68.0,69,29.75,10.0,South,15.0,24.2,N/A,,Overcast,170,2012-10-21 18:35:00
1:55 PM,78.8,68.0,69,29.74,10.0,South,16.1,20.7,N/A,,Overcast,180,2012-10-21 18:55:00
2:15 PM,77.0,68.0,74,29.74,10.0,SSE,10.4,20.7,N/A,,Overcast,150,2012-10-21 19:15:00
2:35 PM,78.8,68.0,69,29.72,10.0,South,20.7,25.3,N/A,,Overcast,170,2012-10-21 19:35:00
2:55 PM,80.6,68.0,65,29.73,10.0,SSE,16.1,20.7,N/A,,Overcast,160,2012-10-21 19:55:00
3:15 PM,80.6,66.2,61,29.72,10.0,South,18.4,26.5,N/A,,Mostly Cloudy,190,2012-10-21 20:15:00
3:35 PM,80.6,66.2,61,29.72,10.0,South,19.6,27.6,N/A,,Mostly Cloudy,170,2012-10-21 20:35:00
3:55 PM,80.6,68.0,65,29.72,10.0,SSE,18.4,26.5,N/A,,Mostly Cloudy,160,2012-10-21 20:55:00
4:15 PM,80.6,68.0,65,29.72,10.0,SSE,20.7,-,N/A,,Mostly Cloudy,160,2012-10-21 21:15:00
4:35 PM,78.8,68.0,69,29.72,10.0,SSE,18.4,25.3,N/A,,Scattered Clouds,150,2012-10-21 21:35:00
4:55 PM,80.6,68.0,65,29.72,10.0,SSE,17.3,23.0,N/A,,Mostly Cloudy,150,2012-10-21 21:55:00
5:15 PM,78.8,68.0,69,29.72,10.0,SSE,16.1,26.5,N/A,,Scattered Clouds,160,2012-10-21 22:15:00
5:35 PM,78.8,68.0,69,29.72,10.0,SSE,16.1,21.9,N/A,,Clear,150,2012-10-21 22:35:00
5:55 PM,78.8,66.2,65,29.73,10.0,SSE,17.3,25.3,N/A,,Clear,150,2012-10-21 22:55:00
6:15 PM,77.0,66.2,69,29.73,10.0,SSE,13.8,-,N/A,,Clear,160,2012-10-21 23:15:00
6:35 PM,77.0,66.2,69,29.73,10.0,SSE,18.4,24.2,N/A,,Clear,160,2012-10-21 23:35:00
6:55 PM,77.0,66.2,69,29.74,10.0,SSE,15.0,23.0,N/A,,Clear,150,2012-10-21 23:55:00
7:15 PM,77.0,66.2,69,29.74,10.0,SE,13.8,20.7,N/A,,Clear,140,2012-10-22 00:15:00
7:35 PM,77.0,66.2,69,29.75,10.0,SSE,11.5,20.7,N/A,,Clear,150,2012-10-22 00:35:00
7:55 PM,75.2,66.2,73,29.75,10.0,SSE,12.7,17.3,N/A,,Scattered Clouds,150,2012-10-22 00:55:00
8:15 PM,75.2,66.2,73,29.76,10.0,SSE,13.8,-,N/A,,Mostly Cloudy,150,2012-10-22 01:15:00
8:35 PM,75.2,66.2,73,29.76,10.0,SSE,18.4,23.0,N/A,,Mostly Cloudy,160,2012-10-22 01:35:00
8:55 PM,75.2,66.2,73,29.76,10.0,SSE,18.4,25.3,N/A,,Scattered Clouds,160,2012-10-22 01:55:00
9:15 PM,75.2,66.2,73,29.76,10.0,SSE,18.4,24.2,N/A,,Clear,160,2012-10-22 02:15:00
9:35 PM,75.2,66.2,73,29.77,10.0,SSE,17.3,23.0,N/A,,Clear,160,2012-10-22 02:35:00
9:55 PM,75.2,66.2,73,29.77,10.0,SSE,18.4,24.2,N/A,,Clear,160,2012-10-22 02:55:00
10:15 PM,75.2,64.4,69,29.78,10.0,SSE,15.0,23.0,N/A,,Clear,160,2012-10-22 03:15:00
10:35 PM,75.2,64.4,69,29.78,10.0,SSE,17.3,23.0,N/A,,Clear,160,2012-10-22 03:35:00
10:55 PM,75.2,64.4,69,29.78,10.0,South,18.4,24.2,N/A,,Clear,170,2012-10-22 03:55:00
11:15 PM,73.4,64.4,73,29.78,10.0,South,18.4,25.3,N/A,,Clear,170,2012-10-22 04:15:00
11:35 PM,73.4,64.4,73,29.78,10.0,South,19.6,26.5,N/A,,Clear,170,2012-10-22 04:35:00
11:55 PM,73.4,64.4,73,29.78,10.0,South,19.6,25.3,N/A,,Clear,170,2012-10-22 04:55:00